ICECUBE (42705 NORAD) Tracking and Keplerian Element Data

This shows tracking and keplerian element data for the satellite.

Feedback or suggestion? Click here.




ElementValue
Catalog42705
NameICECUBE
Epoch Orbit7926
Epoch Day276.06534946
Epoch Year2018
RAAN140.2579
Inclination51.6425
Eccentricity0.0007226
Argument of Perigee336.1768
Mean Anonmoly24.0803
Mean Motion16.46477481
Decay Rate0.17607533
L11 42705U 98067LN 18276.06534946 .17607533 12691-4 36390-3 0 9998
L22 42705 51.6425 140.2579 0007226 336.1768 24.0803 16.46477481 79261



Live tracking and technical data element details for ICECUBE (NORAD 42705). ICECUBE can be tracked NOW for your location showing map with azimuth and elevation plus other details from your city location.







IsCatalogInMostPopularTable: catalog: 42705, numindb: 708
Update: records affected: 1



GetName: 42705 ICECUBE

Hit Count: updated at: Sat, 17 May 2025 09:05:04 GMT